Wetterdaten: aktuell Samstag, 05.09.2026 17:50
Datum Zeit Temp. A. Feuchte A. Luftdruck Regen Wind Richtung Richtung Taupunkt Windchill
05.09.2026 17:50 24,2 °C 20 % 1014,9 hPa 0,0 l/m² 9,5 km/h (2 Bft) NW±22.5° 305 ° -0,2 °C 23,4 °C
05.09.2026 17:48 24,2 °C 20 % 1014,9 hPa 0,0 l/m² 11,1 km/h (2 Bft) NW±22.5° 310 ° -0,2 °C 23,0 °C
05.09.2026 17:47 24,2 °C 20 % 1014,9 hPa 0,0 l/m² 8,5 km/h (2 Bft) NW±45° 325 ° -0,2 °C 23,6 °C
05.09.2026 17:45 24,3 °C 20 % 1014,9 hPa 0,0 l/m² 8,5 km/h (2 Bft) NW±45° 325 ° -0,1 °C 23,7 °C
05.09.2026 17:43 24,2 °C 20 % 1014,9 hPa 0,0 l/m² 12,5 km/h (3 Bft) NW±45° 315 ° -0,2 °C 22,8 °C
05.09.2026 17:41 24,2 °C 20 % 1014,9 hPa 0,0 l/m² 11,6 km/h (2 Bft) NW±45° 320 ° -0,2 °C 22,9 °C
05.09.2026 17:39 24,2 °C 20 % 1014,9 hPa 0,0 l/m² 11,6 km/h (2 Bft) NW±45° 320 ° -0,2 °C 22,9 °C
05.09.2026 17:37 24,3 °C 20 % 1014,9 hPa 0,0 l/m² 8,2 km/h (2 Bft) W-NW±45° 300 ° -0,1 °C 23,8 °C
05.09.2026 17:35 24,3 °C 20 % 1014,9 hPa 0,0 l/m² 7,6 km/h (2 Bft) N-NW±45° 335 ° -0,1 °C 24,0 °C
05.09.2026 17:33 24,4 °C 20 % 1014,9 hPa 0,0 l/m² 8,6 km/h (2 Bft) NW±45° 310 ° -0,0 °C 23,8 °C
05.09.2026 17:31 24,3 °C 20 % 1014,9 hPa 0,0 l/m² 8,6 km/h (2 Bft) NW±45° 310 ° -0,1 °C 23,7 °C
05.09.2026 17:29 24,3 °C 20 % 1014,9 hPa 0,0 l/m² 13,8 km/h (3 Bft) NW±67.5° 310 ° -0,1 °C 22,7 °C
05.09.2026 17:27 24,4 °C 20 % 1014,9 hPa 0,0 l/m² 4,5 km/h (1 Bft) N-NW±22.5° 335 ° -0,0 °C 24,4 °C
05.09.2026 17:25 24,4 °C 20 % 1014,9 hPa 0,0 l/m² 4,5 km/h (1 Bft) N-NW±22.5° 335 ° -0,0 °C 24,4 °C
05.09.2026 17:23 24,4 °C 20 % 1014,9 hPa 0,0 l/m² 7,6 km/h (2 Bft) NW 315 ° -0,0 °C 24,1 °C
05.09.2026 17:21 24,4 °C 20 % 1014,9 hPa 0,0 l/m² 10,4 km/h (2 Bft) W-NW±22.5° 295 ° -0,0 °C 23,4 °C
05.09.2026 17:18 24,5 °C 20 % 1014,9 hPa 0,0 l/m² 5,9 km/h (2 Bft) NW±22.5° 315 ° 0,1 °C 24,5 °C
05.09.2026 17:16 24,5 °C 20 % 1014,9 hPa 0,0 l/m² 5,9 km/h (2 Bft) NW±22.5° 315 ° 0,1 °C 24,5 °C
05.09.2026 17:14 24,5 °C 20 % 1014,9 hPa 0,0 l/m² 9,1 km/h (2 Bft) NW±22.5° 320 ° 0,1 °C 23,8 °C
05.09.2026 17:12 24,4 °C 20 % 1014,9 hPa 0,0 l/m² 13,5 km/h (3 Bft) NW±45° 315 ° -0,0 °C 22,8 °C
05.09.2026 17:10 24,4 °C 20 % 1014,9 hPa 0,0 l/m² 9,4 km/h (2 Bft) W-NW±45° 295 ° -0,0 °C 23,6 °C
05.09.2026 17:08 24,4 °C 20 % 1014,9 hPa 0,0 l/m² 9,4 km/h (2 Bft) W-NW±45° 295 ° -0,0 °C 23,6 °C
05.09.2026 17:06 24,4 °C 20 % 1014,9 hPa 0,0 l/m² 13,5 km/h (3 Bft) NW±45° 325 ° -0,0 °C 22,8 °C
05.09.2026 17:05 24,4 °C 20 % 1014,9 hPa 0,0 l/m² 12,3 km/h (3 Bft) NW±45° 320 ° -0,0 °C 23,0 °C
05.09.2026 17:03 24,4 °C 20 % 1014,9 hPa 0,0 l/m² 12,3 km/h (3 Bft) NW±45° 320 ° -0,0 °C 23,0 °C
05.09.2026 17:01 24,4 °C 20 % 1014,9 hPa 0,0 l/m² 6,1 km/h (2 Bft) NW±22.5° 325 ° -0,0 °C 24,4 °C
05.09.2026 16:59 24,4 °C 20 % 1014,9 hPa 0,0 l/m² 12,6 km/h (3 Bft) NW±22.5° 310 ° -0,0 °C 23,0 °C
05.09.2026 16:57 24,4 °C 20 % 1014,9 hPa 0,0 l/m² 14,1 km/h (3 Bft) NW±45° 305 ° -0,0 °C 22,7 °C
05.09.2026 16:55 24,4 °C 20 % 1014,9 hPa 0,0 l/m² 14,1 km/h (3 Bft) NW±45° 305 ° -0,0 °C 22,7 °C
05.09.2026 16:53 24,4 °C 20 % 1014,9 hPa 0,0 l/m² 15,5 km/h (3 Bft) NW±45° 310 ° -0,0 °C 22,5 °C
05.09.2026 16:51 24,4 °C 20 % 1014,9 hPa 0,0 l/m² 7,9 km/h (2 Bft) N-NW±45° 335 ° -0,0 °C 24,0 °C
05.09.2026 16:49 24,4 °C 20 % 1014,9 hPa 0,0 l/m² 12,2 km/h (2 Bft) W-NW±67.5° 300 ° -0,0 °C 23,1 °C
05.09.2026 16:47 24,4 °C 20 % 1014,9 hPa 0,0 l/m² 12,2 km/h (2 Bft) W-NW±67.5° 300 ° -0,0 °C 23,1 °C
05.09.2026 16:45 24,4 °C 20 % 1014,9 hPa 0,0 l/m² 8,8 km/h (2 Bft) NW±67.5° 310 ° -0,0 °C 23,8 °C
05.09.2026 16:43 24,5 °C 20 % 1014,9 hPa 0,0 l/m² 10,6 km/h (2 Bft) NW±45° 315 ° 0,1 °C 23,5 °C
05.09.2026 16:41 24,6 °C 20 % 1014,9 hPa 0,0 l/m² 10,6 km/h (2 Bft) NW±45° 315 ° 0,2 °C 23,6 °C
05.09.2026 16:38 24,6 °C 20 % 1014,9 hPa 0,0 l/m² 13,7 km/h (3 Bft) NW±67.5° 315 ° 0,2 °C 23,0 °C
05.09.2026 16:36 24,5 °C 20 % 1014,9 hPa 0,0 l/m² 12,1 km/h (2 Bft) W-NW±67.5° 295 ° 0,1 °C 23,2 °C
05.09.2026 16:34 24,5 °C 20 % 1014,9 hPa 0,0 l/m² 12,1 km/h (2 Bft) W-NW±67.5° 295 ° 0,1 °C 23,2 °C
05.09.2026 16:32 24,5 °C 20 % 1014,9 hPa 0,0 l/m² 12,1 km/h (2 Bft) W-NW±67.5° 295 ° 0,1 °C 23,2 °C
05.09.2026 16:30 24,6 °C 20 % 1014,9 hPa 0,0 l/m² 5,9 km/h (2 Bft) W-NW±67.5° 295 ° 0,2 °C 24,6 °C
_ Min-Zeit 05:03 14:26 00:09 - 00:02 - - 17:39 09:42
Minimum _ 18,3 °C 20 % 1009,1 hPa - 0,0 km/h (0 Bft) - - -0,2 °C 18,3 °C
_ Max-Zeit 15:43 08:06 11:25 00:01 16:09 - - 08:06 15:48
Maximum _ 24,8 °C 70 % 1015,1 hPa 0,0 l/m² 23,0 km/h
NW (4 Bft)
- - 12,9 °C 24,8 °C
Durchschnitt _ 20,7 °C 48 % 1012,8 hPa #0,0 l/m² 4,3 km/h (1 Bft) NW - 7,8 °C 20,3 °C